Location: Arrington
(35.8681°N, 86.7092°W)
Time: 15:20:59
(UTC+00:00)

Cosmos 1818 - Pass Details

Date: 23 November 2019
Orbit: 776 x 797 km, 65.0° (Epoch: 09 December)

Event Time Altitude Azimuth Distance (km) Brightness Sun altitude
Rises 11:34:50 0° 224° (SW) 3,274 6.5 -11.4°
Reaches altitude 10° 11:37:20 10° 230° (SW) 2,351 5.7 -10.9°
Maximum altitude 11:42:32 47° 304° (NW) 1,048 3.8 -9.9°
Drops below altitude 10° 11:47:47 10° 18° (NNE) 2,372 6.0 -8.9°
Sets 11:50:19 0° 24° (NNE) 3,306 6.9 -8.4°
